SITRO-AIS 25

Last updated on Mon Sep 21 2026 00:03:45 GMT+0000 (Coordinated Universal Time)

1 59066U 24039R 26263.63330961 .00002372 00000+0 18421-3 0 9996 2 59066 95.3813 300.6507 0142959 354.9404 5.0368 14.94063693138972
UTC large
Height (km)
Speed (km/s)
/
Latitude / Longitude
Inclination (degrees)
Orbital Period (minutes)
Azimuth
Elevation
Range (km)
Doppler Factor

Next 0 passes for location: London (51.5072 / 0.1276)

No passes found over London.
SITRO-AIS 25